Location: Newark
(39.0083°N, 20.7336°E)
Time: 14:15:25
(UTC+00:00)

N. Korean satellite - Pass Details

Date: 22 September 2021
Orbit: 450 x 495 km, 97.3° (Epoch: 19 October)

Event Time Altitude Azimuth Distance (km) Brightness Sun altitude
Rises 03:22:21 0° 22° (NNE) 2,517 10.7 -12.9°
Reaches altitude 10° 03:24:33 10° 32° (NNE) 1,644 9.9 -12.5°
Maximum altitude 03:27:45 32° 98° (E) 841 8.5 -11.8°
Drops below altitude 10° 03:30:59 10° 163° (SSE) 1,655 9.4 -11.2°
Sets 03:33:12 0° 173° (S) 2,538 10.2 -10.8°
